www.pogodaiklimat.ru

Погода и климат >> Архив погоды >> Россия >> город Санкт-Петербург >> Санкт-Петербург


АРХИВ ПОГОДЫ в Санкт-Петербурге

Время (UTC), дата Ветер
(напр.,м/с)
 
Видим.   Явления Облачность Т
(С)
Тd
(С)
f
(%)
Тe
(С)
Тes
(С)
Комфортность P
(гПа)
Po
(гПа)
Тmin
(С)
Tmax
(С)
R
(мм)
R24
(мм)
S
(см)
18 15.04 С 1 10 км ясно +6.4 -5.0 44 +6 +6 по сезону 1032.5 1031.7 +9.7
21 15.04 штиль 0 10 км ясно +3.1 -0.7 76 +2 +2 по сезону 1032.9 1032.1
00 16.04 штиль 0 10 км ясно +2.1 -0.5 83 +1 +1 по сезону 1033.0 1032.2
03 16.04 штиль 0 10 км ясно +1.3 -0.5 88 0 0 по сезону 1033.1 1032.2 +1.0
06 16.04 штиль 0 10 км ясно +8.3 -0.6 53 +8 +13 тепло 1033.7 1032.9 +1.0
09 16.04 СВ 2 10 км ясно +12.0 -1.5 39 +11 +21 опасность
простуды
1034.3 1033.5
12 16.04 С 3 10 км ясно +11.7 -2.2 38 +10 +17 тепло 1034.8 1034.0
15 16.04 СВ 2 10 км ясно +10.1 -3.3 39 +9 +11 тепло 1034.2 1033.4
18 16.04 СВ 1 10 км ясно +7.7 -2.8 47 +7 +7 тепло 1034.5 1033.6 +12.6
21 16.04 В 1 10 км ясно +5.4 -1.7 60 +5 +5 по сезону 1035.5 1034.7
00 17.04 штиль 0 10 км ясно +3.6 -1.9 67 +3 +3 по сезону 1035.6 1034.8
03 17.04 штиль 0 10 км 3/0
[Ci fib]
+1.6 -1.7 79 +1 +1 по сезону 1036.3 1035.5 +1.4
06 17.04 СВ 2 10 км ясно +6.4 -2.0 55 +5 +9 по сезону 1036.5 1035.6 +1.4
09 17.04 СЗ 1 10 км 3/0
[Ci fib]
+11.2 -2.7 38 +12 +22 тепло 1035.7 1034.9
12 17.04 ЮЗ 2 10 км 4/0
[Ci fib]
+11.3 -1.8 40 +11 +18 тепло 1034.2 1033.4
15 17.04 ЮЗ 2 10 км 9/0
[Cs]
+10.3 0.0 49 +9 +11 тепло 1032.8 1032.0
18 17.04 ЮЗ 1 10 км 10/0
[As trans]
+7.9 +0.8 61 +7 +7 по сезону 1032.6 1031.8 +12.1
21 17.04 штиль 0 10 км 10/0
[As trans]
+5.8 +1.8 75 +5 +5 по сезону 1032.4 1031.6
00 18.04 З 1 10 км 10/0
[As trans]
+5.1 +0.9 74 +4 +4 по сезону 1032.1 1031.3
03 18.04 С 1 10 км 8/0
[Ac trans]
+4.5 -0.5 70 +3 +3 по сезону 1032.1 1031.3 +3.8
06 18.04 СВ 1 10 км ясно +9.0 -1.1 49 +9 +14 тепло 1033.3 1032.5 +3.8
09 18.04 СВ 2 10 км ясно +12.5 -2.7 35 +12 +22 тепло 1034.2 1033.4
12 18.04 СВ 2 10 км ясно +13.6 -3.1 31 +13 +22 тепло 1034.1 1033.4
15 18.04 СВ 2 10 км ясно +12.5 -3.6 32 +12 +14 тепло 1034.0 1033.2
18 18.04 В 1 10 км ясно +8.4 -3.6 43 +8 +8 тепло 1034.2 1033.4 +13.9
21 18.04 штиль 0 10 км ясно +4.8 -2.3 60 +4 +4 по сезону 1034.5 1033.7
00 19.04 штиль 0 10 км ясно +2.7 -1.5 74 +2 +2 по сезону 1034.5 1033.7
03 19.04 штиль 0 10 км 3/0
[Ac As]
+3.6 -2.4 65 +3 +3 по сезону 1033.5 1032.7 +2.4
06 19.04 ЮЗ 1 10 км 8/0
[Ci fib]
+8.4 -0.9 52 +8 +12 тепло 1032.7 1031.9 +2.4
09 19.04 ЮЗ 3 10 км 10/0
[Cs]
+12.4 -1.3 39 +11 +18 тепло 1031.4 1030.7
12 19.04 ЮЗ 3 10 км 10/0
[Cs]
+11.5 +0.8 48 +10 +16 тепло 1030.2 1029.4
15 19.04 З 2 10 км 10/0
[Ac As Cs]
+11.4 +0.6 47 +11 +12 тепло 1029.0 1028.2
18 19.04 С 2 10 км 10/4 1500 м
[Sc diur, vesp Ac As]
+11.7 -0.9 42 +11 +11 тепло 1028.8 1028.1 +14.0
21 19.04 С 2 10 км {дождь} 10/10 1500 м
[St]
+9.5 -1.8 45 +8 +8 тепло 1028.7 1027.9
00 20.04 С 2 10 км 3/0
[Cs]
+7.0 -1.4 55 +5 +5 тепло 1028.4 1027.6
03 20.04 СВ 2 10 км ясно +4.8 -2.4 60 +3 +3 по сезону 1028.6 1027.8 +4.6 0.0
06 20.04 С 3 10 км ясно +7.7 -3.3 46 +6 +9 тепло 1028.9 1028.1 +4.6 0.0
09 20.04 СВ 3 10 км 9/8 1000 м
[Cu Sc Ac As]
+8.1 -4.8 40 +6 +7 по сезону 1029.0 1028.2
12 20.04 С 2 10 км 9/0
[Ac As]
+9.0 -4.7 38 +8 +11 по сезону 1028.2 1027.4
15 20.04 СВ 1 10 км 8/0
[Ac As]
+7.3 -0.4 58 +7 +8 по сезону 1028.3 1027.5
18 20.04 В 1 10 км 6/0
[Ac As]
+5.4 -1.2 62 +5 +5 по сезону 1028.5 1027.7 +9.8
21 20.04 СВ 1 10 км ясно +3.4 +0.5 81 +2 +2 по сезону 1029.0 1028.2
00 21.04 штиль 0 10 км ясно +2.5 +0.1 84 +1 +1 по сезону 1028.9 1028.1
03 21.04 штиль 0 10 км ясно +1.4 -0.1 90 0 0 прохладно 1029.6 1028.8 +1.2
06 21.04 ЮВ 1 10 км ясно +7.3 -1.3 54 +7 +12 тепло 1030.0 1029.2 +1.2
09 21.04 ЮВ 1 10 км ясно +10.4 -2.9 39 +11 +22 опасность
простуды
1029.8 1029.0
12 21.04 З 1 10 км ясно +13.5 -3.8 30 +14 +24 тепло 1028.4 1027.7
15 21.04 ЮЗ 1 10 км ясно +14.5 -4.8 26 +15 +18 тепло 1027.2 1026.5
18 21.04 штиль 0 10 км ясно +10.5 -3.9 36 +10 +10 тепло 1027.5 1026.7 +15.0
21 21.04 штиль 0 10 км ясно +7.0 -2.4 51 +7 +7 тепло 1027.5 1026.7
00 22.04 штиль 0 10 км ясно +4.5 -1.0 67 +4 +4 по сезону 1027.7 1026.9
03 22.04 ЮЗ 1 10 км ясно +7.4 -2.3 50 +7 +7 тепло 1027.7 1026.8 +4.2
06 22.04 ЮЗ 2 10 км 3/0
[Cs]
+13.0 -0.4 40 +13 +17 тепло 1028.4 1027.8 +4.2
09 22.04 З 3 10 км 4/0
[Cs]
+16.5 -1.5 29 +16 +24 тепло 1028.4 1027.7
12 22.04 СЗ 3 10 км 10/0
[As trans]
+17.1 -2.4 26 +17 +20 тепло 1027.7 1027.0
15 22.04 З 3 10 км 9/0
[As trans Cs]
+16.1 -1.7 30 +16 +17 тепло 1026.9 1026.2

 

Местоположение метеостанции Санкт-Петербург (город Санкт-Петербург, Россия): широта 59.97 долгота 30.30 высота над уровнем моря 6 м.

В архиве по умолчанию представлена погода в Санкт-Петербурге за последнюю неделю. Архивные данные за месяц целиком и за предыдущие месяцы, начиная с января 2011 года, Вы можете получить, выбрав интересующий диапазон дат из раскрывающегося списка и нажав кнопку "Ввод!".


*Определитесь, кто Вы:
робот инопланетянин человек

Внимание! Время в таблицах - всемирное. Для получения местного времени необходимо прибавить поправку, которая равна 3 ч.

Смотрите также архив погоды в соседних городах и на ближайших метеорологических станциях:

Погода в Лисьем Носу (город Санкт-Петербург, Россия) (19 км)
Погода в Воейково (город Санкт-Петербург, Россия) (22 км)
Погода в Ломоносове (город Санкт-Петербург, Россия) (29 км)
Погода в Кронштадте (город Санкт-Петербург, Россия) (30 км)
Погода в Шлиссельбурге (Ленинградская область, Россия) (39 км)
Погода в Рощино (Ленинградская область, Россия) (48 км)
Погода в Шепелево (Ленинградская область, Россия) (58 км)
Погода в Сосново (Ленинградская область, Россия) (65 км)
Погода в Сосновом Бору (Ленинградская область, Россия) (65 км)
Погода в Белогорке (Ленинградская область, Россия) (70 км)

Пояснения к столбцам:

Ветер - указаны скорость ветра в м/с - средняя за 10 мин, порывы в срок и между сроками (в фигурных скобках) и направление, откуда дует ветер: С - северный, СВ - северо-восточный, В - восточный, ЮВ - юго-восточный, Ю - южный, ЮЗ - юго-западный, З - западный, СЗ - северо-западный.
Видимость - горизонтальная дальность видимости в метрах или километрах. При видимости от 1 до 10 км при отсутствии осадков обычно наблюдается дымка, при ухудшении видимости до 1 км и менее - туман. В сухую погоду видимость может ухудшаться дымом, пылью или мглою.
Явления - указаны атмосферные явления, наблюдавшиеся в срок или в последний час перед сроком; фигурными скобками обозначены явления, наблюдавшиеся между сроками (за 1-3 часа до срока); квадратными скобками обозначены град или гололедные отложения с указанием их диаметра в мм.
Облачность - указаны через наклонную черту общая и нижняя облачность в баллах и высота нижней границы облаков в метрах; квадратными скобками обозначены формы облаков: Ci - перистые, Cs - перисто-слоистые, Cc - перисто-кучевые, Ac - высококучевые, As - высокослоистые, Sc - слоисто-кучевые, Ns - слоисто-дождевые, Cu - кучевые, Cb - кучево-дождевые. Подробнее классификацию облаков см. в Атласе облаков (PDF).
T - Температура воздуха - температура, измеренная на высоте 2 м над землей.
Td - Температура точки росы - температура, при понижении до которой содержащийся в воздухе водяной пар достигнет насыщения.
f - Относительная влажность воздуха - влажноcть воздуха, измеренная на высоте 2 м над землей.
Te - Эффективная температура - температура, которую ощущает одетый по сезону человек в тени. Характеристика душности погоды. При расчете учитывается влияние влажности воздуха и скорости ветра на теплоощущения человека.
Tes - Эффективная температура на солнце - температура, которую ощущает человек, с поправкой на солнечный нагрев. Характеристика знойности погоды. Зависит от высоты солнца над горизонтом, облачности и скорости ветра. Ночью, в пасмурную погоду, а также при ветре 12 м/с и более поправка равна нулю.
P - Атмосферное давление - приведенное к уровню моря атмосферное давление.
Po - Атмосферное давление - измеренное на уровне метеостанции атмосферное давление.
Tmin - Минимальная температура - минимум температуры воздуха на высоте 2 м над землей.
Tmax - Максимальная температура - максимум температуры воздуха на высоте 2 м над землей.
R - Количество осадков - Количество выпавших осадков за период времени, мм. При наведении курсора мыши на число - период времени, за который выпало указанное количество осадков.
R24 - Количество осадков - Количество выпавших осадков за 24 часа, мм.
S - Снежный покров - Высота снежного покрова, см. При наведении курсора мыши на число - состояние снежного покрова и степень покрытия местности в баллах.